OneWeb SL0065

operational
NORAD ID: 45164 Int'l Des: 2020-008 Owner: ONEWEB Country: UK Constellation: oneweb
LEOCIRCULARPOLARONEWEB_TYPE

Über OneWeb SL0065

Beschreibung wird geladen...

Live-Position

3D-Globus wird geladen...

Nächste Überflüge

Höhenverlauf

Altitude vs Time

uPlot chart will show altitude changes over time

Zweizeiliger Elementsatz

1 45164U 20008AK 26062.50839363 .00000592 00000-0 16582-2 0 9993
2 45164 87.8762 57.3156 0001823 76.8968 283.2363 13.10373540294048
Epoch: 3. März 2026 • Age: 32 hours

Aktueller Status

Höhe 1232.4 km
Geschwindigkeit 7.24 km/s
Subsatellitenpunkt -26.19°S, 37.51°W
Startdatum 6. Feb. 2020
Alter 6 years
Typ internet

Technische Details

Klassifizierung Payload
Masse 148.00 kg
Trockenmasse 140.00 kg
Gesamtmasse 148.00 kg
Länge 1.30 m
Durchmesser 1.00 m
Spannweite 5.00 m
Form Trapezoid+2 pan
Hersteller ONEWUS
Bus-Typ ARROW
Phasenstatus In Orbit
Besitzer/Staat ONEWEB/UK

Große Konstellationen

Loading constellations...